Regional Weather Roundup
Issued by NWS Tiyan, Guam

Home | Current Version | Previous Version | Text Only | Print | Product List | Glossary On
Versions: 1 2 3 4 5 6 7 8 9 10 11 12 13 14 15 16 17 18 19 20 21 22 23 24 25 26 27
000
ASGM40 PGUM 280912
RWRGUM
WEATHER ROUNDUP FOR THE MARIANAS
NATIONAL WEATHER SERVICE TIYAN GU
700 PM CHST TUE MAR 28 2017

GUZ001>004-281000-
MARIANA ISLANDS-

CITY           SKY/WX    TMP DP  RH WIND       PRES   REMARKS
GUAM AIRPORT   PTCLDY    81  73  78 NE10      29.92R
ANDERSEN AFB   MOCLDY    81  73  78 NE15      29.94R
ROTA AIRPORT   PTCLDY    79  73  83 NE15      29.92R
TINIAN AP      MOCLDY    79  75  89 NE18      29.92R
SAIPAN AP      CLOUDY    81  73  78 NE17G24   29.94R

$$





USA.gov is the U.S. government's official web portal to all federal, state and local government web resources and services.